This is the latest recevied weather packets stored in our database for station/object E22ZMG-4. If no packets are shown the sender has not sent any weather packets the latest 1 day(s).
| Time | Temp. | Humidity | Pressure | Rain* | Wind** | Luminosity | Snow |
|---|---|---|---|---|---|---|---|
| 1778095270 | 31.67° C | 53% | 974 hPa | - | - | 0 W/m² | - |
| 1778094021 | 31.67° C | 53% | 974 hPa | - | - | 0 W/m² | - |
| 1778091521 | 31.67° C | 52% | 974 hPa | - | - | 0 W/m² | - |
| 1778087773 | 32.22° C | 52% | 975 hPa | - | - | 0 W/m² | - |
| 1778084649 | 32.22° C | 51% | 975 hPa | - | - | 0 W/m² | - |
| 1778080274 | 32.22° C | 51% | 975 hPa | - | - | 0 W/m² | - |
| 1778079650 | 32.22° C | 51% | 975 hPa | - | - | 0 W/m² | - |
| 1778079026 | 32.22° C | 51% | 975 hPa | - | - | 0 W/m² | - |
| 1778078401 | 32.22° C | 50% | 974 hPa | - | - | 0 W/m² | - |
| 1778075277 | 32.22° C | 51% | 973 hPa | - | - | 0 W/m² | - |
| 1778074029 | 32.22° C | 51% | 972 hPa | - | - | 0 W/m² | - |
| 1778073402 | 32.22° C | 51% | 972 hPa | - | - | 0 W/m² | - |
| 1778071525 | 32.22° C | 49% | 972 hPa | - | - | 0 W/m² | - |
| 1778070275 | 31.67° C | 44% | 972 hPa | - | - | 0 W/m² | - |
| 1778069651 | 31.67° C | 44% | 972 hPa | - | - | 0 W/m² | - |
| 1778069026 | 31.67° C | 43% | 972 hPa | - | - | 0 W/m² | - |
| 1778068401 | 31.67° C | 43% | 972 hPa | - | - | 0 W/m² | - |
| 1778067776 | 31.67° C | 43% | 972 hPa | - | - | 0 W/m² | - |
| 1778065278 | 30.56° C | 43% | 971 hPa | - | - | 0 W/m² | - |
| 1778064653 | 30.56° C | 43% | 971 hPa | - | - | 0 W/m² | - |
| 1778063403 | 28.89° C | 44% | 971 hPa | - | - | 0 W/m² | - |
| 1778062778 | 27.22° C | 47% | 971 hPa | - | - | 0 W/m² | - |
| 1778062154 | 26.67° C | 43% | 971 hPa | - | - | 0 W/m² | - |
| 1778060280 | 26.67° C | 45% | 971 hPa | - | - | 0 W/m² | - |
| 1778059656 | 26.67° C | 40% | 971 hPa | - | - | 0 W/m² | - |
* Rain since midnight (hover to see other rain measurements)
** Current wind speed in m/s (hover to see current wind gust speed)